Location: Pompaples
(46.6675°N, 6.5109°E)
Time: 22:32:05
(UTC+00:00)

Daily predictions for brighter satellites

Satellite Brightness Start Highest point End
(mag) Time Altitude Azimuth Time Altitude Azimuth Time Altitude Azimuth
NOSS 3-1 (A) 4.2 16:07:15 10° NW 16:14:44 83° NE 16:23:31 10° SE
Envisat 4.5 16:13:35 10° S 16:18:23 42° W 16:23:14 10° NNW
NOSS 2-2 (E) 4.5 16:14:25 10° NNW 16:19:27 54° NE 16:26:27 10° ESE
Cosmos 1408 Rocket 3.7 16:15:12 10° N 16:19:35 82° W 16:23:59 10° S
Cosmos 1666 4.4 16:20:23 10° NE 16:22:16 13° ENE 16:24:08 10° E
Cosmos 2026 Rocket 4.3 16:20:50 10° N 16:26:40 43° ENE 16:32:25 10° SE
Cosmos 2322 Rocket 3.9 16:25:59 10° N 16:28:49 14° NE 16:31:38 10° ENE
USA 305 4.0 16:25:04 10° WNW 16:28:50 30° N 16:32:37 10° ENE
Cosmos 1743 Rocket 3.5 16:24:35 10° N 16:28:55 68° E 16:33:13 10° SSE
CZ-4B R/B 2.7 16:25:17 10° SSE 16:29:18 77° ENE 16:33:08 10° N
Cosmos 1933 3.7 16:26:23 10° SSE 16:30:14 44° E 16:34:05 10° NNE
Cosmos 1697 Rocket 2.6 16:24:57 10° NNW 16:30:35 74° ENE 16:36:12 10° SSE
Cosmos 1980 Rocket 2.5 16:29:51 10° NNW 16:35:18 45° NE 16:40:41 10° SE
SL-08 R/B 3.5 16:30:54 10° NNE 16:35:37 77° WNW 16:40:15 10° SSW
Okean O Rocket 3.0 16:33:31 10° ESE 16:36:29 18° ENE 16:39:27 10° NNE
Cosmos 540 Rocket 3.7 16:32:43 10° S 16:37:39 52° ESE 16:42:37 10° NNE
FengYun 1-2 T 4.2 16:32:16 10° SSE 16:37:50 75° ENE 16:43:22 10° N
Cosmos 2369 3.8 16:34:02 10° NNW 16:39:43 60° ENE 16:45:22 10° SE
SJ 16-02 4.4 16:36:50 10° NW 16:39:51 18° W 16:42:51 10° SW
Cosmos 1666 Rocket 4.5 16:36:20 10° NNE 16:40:07 26° ENE 16:43:51 10° SE
Cosmos 1809 Rocket 4.4 16:38:10 10° N 16:44:14 64° ENE 16:50:15 10° SSE
Meteor PRIRODA 4.1 16:42:00 10° S 16:45:36 63° W 16:49:12 10° NNW
Cosmos 1812 3.8 16:42:29 10° SE 16:45:39 24° E 16:48:48 10° NE
NOAA 12 4.3 16:41:02 10° S 16:46:21 79° WSW 16:51:42 10° NNW
ERBS 4.4 16:45:31 10° NW 16:47:34 16° NNW 16:49:39 10° NNE
SL-16 R/B 3.4 16:43:34 10° N 16:47:47 21° NE 16:51:24 12° E
CORIOLIS 4.1 16:44:29 10° SSE 16:49:51 69° ENE 16:55:16 10° N
Cosmos 2082 Rocket 2.5 16:46:06 10° S 16:51:31 46° ESE 16:56:54 10° NE
Radarsat 4.5 16:48:35 10° SSE 16:53:45 72° ENE 16:58:57 10° N
Meteor 1-25 Rocket 4.3 16:50:09 10° NNW 16:55:45 82° W 17:01:22 10° S
Cosmos 468 Rocket 4.3 16:51:38 10° SSW 16:56:46 68° WNW 17:01:59 10° NNE
Cosmos 1500 Rocket 4.3 16:52:38 10° NNW 16:57:00 57° W 17:01:18 10° S
USA 306 4.0 16:57:28 10° WNW 17:01:16 30° N 17:03:34 19° NE
MOS 1-B Rocket 4.4 16:56:11 10° NNE 17:01:56 47° E 17:08:26 10° S
Cosmos 1898 Rocket 4.2 16:57:24 10° NNW 17:02:35 59° WSW 17:07:39 10° S
CZ-4B DEB 4.1 16:57:12 10° SSE 17:02:42 76° ENE 17:08:12 10° NNW
Cosmos 2278 3.8 16:57:46 10° NNW 17:03:23 53° ENE 17:08:55 10° SE
Cosmos 1602 3.9 17:00:16 10° NNW 17:04:08 76° W 17:07:59 10° S
Cosmos 1818 4.1 16:59:08 10° NNW 17:04:16 39° NE 17:08:58 12° ESE
Sich 1 2.9 17:00:00 10° N 17:04:18 80° E 17:08:37 10° SSE
Cosmos 1939 Rocket 3.3 17:00:21 10° S 17:04:26 68° W 17:08:31 10° NNW
ARGOS 3.6 17:01:15 10° SE 17:06:10 37° ENE 17:11:07 10° N
Cosmos 1805 Rocket 3.8 17:04:38 10° NNW 17:08:58 72° W 17:13:16 10° S
Cosmos 1833 Rocket 3.1 17:05:49 10° SW 17:11:22 63° WNW 17:16:59 10° NNE
COSMOS 2406 3.4 17:09:31 10° SSW 17:15:16 75° WNW 17:21:02 10° NNE
GEOS 3 Rocket 4.5 17:13:44 21° ENE 17:16:04 30° NE 17:20:30 10° NNW
NOSS 2-2 (C) 4.4 17:11:39 10° NW 17:16:53 85° SW 17:24:16 10° SE
deb Chang Zheng 4 3.8 17:13:21 10° SE 17:17:28 46° ENE 17:21:36 10° N
USA 307 3.9 17:16:42 10° NW 17:20:33 32° N 17:21:59 25° NE
Cosmos 2219 Rocket 4.2 17:20:00 10° NNE 17:20:35 10° NNE 17:20:35 10° NNE
USA 267 3.4 17:16:34 17° NE 17:21:44 72° NNW 17:28:14 10° WSW
Cosmos 1782 3.0 17:18:49 10° SSW 17:22:48 72° W 17:26:48 10° N
Cosmos 2208 Rocket 4.3 17:21:09 10° S 17:26:17 47° ESE 17:29:27 22° NE
CZ-2C R/B 2.7 17:21:54 10° NNE 17:26:59 52° E 17:32:00 10° S
SL-08 RB Rocket 4.2 17:24:16 10° SE 17:28:31 37° ENE 17:32:45 10° N
Cosmos 1500 3.7 17:25:08 10° NNW 17:28:49 59° W 17:32:29 10° S
CZ-2D R/B 3.4 17:25:03 10° S 17:28:52 76° WSW 17:32:42 10° NNW
Cosmos 2150 Rocket 4.4 17:25:37 10° N 17:30:28 39° ENE 17:33:12 22° ESE
CZ-4C R/B 2.9 17:23:53 10° NW 17:31:06 82° NE 17:39:35 10° SE
Meteor 2-6 Rocket 4.3 17:26:02 10° S 17:31:37 54° E 17:36:56 11° NNE
H-2A R/B 2.0 17:26:55 10° SSE 17:32:05 86° WSW 17:37:09 10° NNW
Meteor 2-16 Rocket 4.3 17:26:00 10° N 17:32:09 79° E 17:38:17 10° SSE
CZ-4B R/B 3.0 17:28:06 10° SSE 17:33:29 75° ENE 17:38:50 10° NNW
PAYLOAD B 4.4 17:29:44 10° S 17:35:21 77° WSW 17:40:59 10° NNW
Cosmos 841 Rocket 3.8 17:30:27 10° SSW 17:35:35 66° WNW 17:40:21 12° NNE
YAOGAN 3 4.5 17:34:10 10° SSE 17:38:28 64° ENE 17:42:48 10° N
USA 308 3.7 17:39:19 10° NW 17:43:15 35° NNE 17:43:39 34° NNE
COSMO-SKYMED 1 2.4 17:41:39 23° NNE 17:44:18 73° ESE 17:48:38 10° S
Lacrosse 5 rocket 1.3 17:40:36 10° NW 17:44:28 55° NE 17:44:49 52° ENE
Cosmos 2142 Rocket 4.5 17:38:22 10° S 17:44:32 87° W 17:50:48 10° N
Cosmos 921 Rocket 3.2 17:41:33 10° S 17:45:22 44° ESE 17:45:22 44° ESE
Cosmos 1125 Rocket 3.7 17:40:38 10° NNW 17:45:42 47° ENE 17:47:31 34° ESE
COSMOS 2455 3.2 17:42:12 10° SW 17:48:10 63° NW 17:52:28 20° NNE
Cosmos 2279 Rocket 4.0 17:43:44 10° S 17:49:57 84° W 17:56:12 10° N
Cosmos 1633 Rocket 3.2 17:47:00 10° NNW 17:51:22 73° W 17:55:44 10° S
ATLAS 2AS CENTAUR R/B 4.2 17:46:09 10° NW 17:51:42 21° N 17:54:01 18° NNE
ISS -2.6 17:48:56 10° WNW 17:52:10 42° SW 17:53:03 34° S
Helios 1B 4.4 17:49:55 27° NNE 17:52:14 85° ESE 17:56:34 10° SSW
Cosmos 2360 Rocket 3.3 17:48:29 10° N 17:52:12 26° NNE 17:52:12 26° NNE
YAOGAN 1 4.3 17:56:50 20° N 17:56:50 20° N 17:58:15 10° N
Cosmos 2266 Rocket 4.0 17:47:52 10° N 17:54:13 63° ENE 18:00:35 10° SSE
Cosmos 44 Rocket 3.1 17:49:20 10° NW 17:54:17 77° NE 17:56:03 39° SE
USA 234 3.8 17:49:14 10° SE 17:55:39 57° SW 18:02:05 10° WNW
Meteor 1-10 Rocket 4.2 17:51:35 10° S 17:57:17 65° E 18:00:37 25° NNE
Meteor 1-11 Rocket 3.7 17:52:28 10° N 17:58:01 58° ENE 18:03:40 10° SSE
Cosmos 1666 3.5 17:54:29 10° NNW 17:58:06 48° W 18:01:40 10° S
Cosmos 1151 Rocket 3.7 17:56:41 10° SSW 18:00:55 54° WNW 18:04:41 13° N
USA 305 3.7 18:05:20 10° NW 18:08:40 39° N 18:08:40 39° N
Cosmos 1900 4.2 18:06:06 10° SW 18:10:58 83° NW 18:11:47 62° NNE
Okean O Rocket 2.2 18:08:00 10° S 18:12:23 58° WSW 18:16:49 10° NNW
Feng Yun 1-1 Rocket 4.3 18:07:36 10° SSE 18:13:32 86° ENE 18:19:26 10° NNW
Cosmos 2322 Rocket 2.3 18:08:34 10° NNW 18:13:54 55° NE 18:13:54 55° NE
Meteor 2-15 4.4 18:08:32 10° S 18:14:39 86° W 18:20:48 10° N
Landsat 5 3.5 18:16:56 71° W 18:16:56 71° W 18:20:46 10° SSW
Cosmos 1980 Rocket 3.9 18:14:10 10° NW 18:19:07 32° WSW 18:24:00 10° SSW
Cosmos 1470 Rocket 4.0 18:17:05 10° NNW 18:21:29 60° W 18:25:52 10° S
Spot 2 4.4 18:20:29 36° SSE 18:22:39 87° ENE 18:27:48 10° NNW
SL-16 R/B 2.1 18:26:55 10° NNW 18:32:38 85° WSW 18:33:21 69° S
Cosmos 1655 Rocket 4.4 18:29:20 10° NNW 18:35:40 64° W 18:41:56 10° S
Cosmos 2082 Rocket 3.7 18:30:40 10° WSW 18:35:45 33° NW 18:38:46 20° N
Cosmos 2298 Rocket 4.5 18:30:41 10° NNW 18:35:56 60° WSW 18:38:49 26° S
ATLAS CENTAUR R/B 3.6 18:31:48 10° W 18:37:36 29° NNW 18:37:45 29° NNW
CZ-2C R/B 4.0 18:41:29 10° SSW 18:42:01 12° SSW 18:42:01 12° SSW
Cosmos 2333 Rocket 4.0 18:40:53 10° NNW 18:42:44 19° N 18:42:44 19° N
GEOS 3 Rocket 4.1 18:54:52 55° WNW 18:54:52 55° WNW 18:58:59 10° NW
USA 267 4.0 19:03:55 39° N 19:04:13 40° NNW 19:10:11 10° WNW
Cosmos 2219 Rocket 4.4 19:01:20 10° NNW 19:02:19 15° N 19:02:19 15° N
Lacrosse 5 rocket 4.4 19:19:58 10° WNW 19:20:26 12° WNW 19:20:26 12° WNW
Cosmos 2360 Rocket 4.2 19:32:08 10° NNW 19:34:00 21° NW 19:34:00 21° NW
ATLAS 2AS CENTAUR R/B 4.4 19:38:11 10° NNW 19:41:27 24° NNW 19:41:27 24° NNW
Cosmos 2322 Rocket 4.4 19:53:17 10° NW 19:55:46 20° WNW 19:55:46 20° WNW
